[[{"header":{"parameterUnit":"m.s-1","parameterCategory":1,"la1":30.2991,"la2":30.254,"lo1":-89.0895,"lo2":-89.0444,"dy":0.0017,"dx":0.0017,"nx":28,"ny":28,"refTime":"2024-03-21T09:00:00:Z","depth":0,"parameterNumber":2,"parameterNumberName":"U-component_of_WINDS"},"data":[0,0,0,0,0,0,0,0,0,0,0,0,0,0,0,0,0,0,0,0,0,0,0,0,0,0,0,0,0,0,0,0,0,0,0,0,0,0,0,0,0,0,0,0,0,0,0,0,0,0,0,0,0,0,0,0,0,0,-3.1081,-3.1081,0,-3.107,-3.1069,-3.1069,-3.0976,-3.0974,-3.0972,-3.0969,-3.0959,-3.0961,-3.0963,0,0,0,0,0,0,0,0,0,0,0,0,0,-3.1024,-3.1026,-3.1081,-3.1081,-3.1081,-3.107,-3.1069,-3.1069,-3.0977,-3.0974,-3.0971,-3.0968,-3.0959,-3.0961,-3.0963,0,0,0,0,0,0,0,0,0,0,0,0,0,-3.1035,-3.1026,-3.1081,-3.1033,-3.1029,-3.107,-3.1069,-3.1069,-3.0977,-3.0974,-3.097,-3.0967,-3.0958,-3.0961,-3.0963,-3.105,0,0,-3.0972,-3.0973,0,0,0,0,0,0,0,0,-3.1034,-3.1037,-3.104,-3.1036,-3.1031,-3.1021,-3.1046,-3.1063,-3.0978,-3.0997,-3.0969,-3.0965,-3.0983,-3.0983,-3.0989,-3.105,-3.1049,-3.0972,-3.0974,-3.0975,-3.0976,0,0,0,0,0,0,0,-3.1034,-3.1037,-3.1076,-3.104,-3.1035,-3.1013,-3.101,-3.1049,-3.1009,-3.0995,-3.0988,-3.0988,-3.098,-3.0986,-3.0988,-3.1049,-3.0972,-3.0975,-3.0976,-3.0977,-3.1182,-3.1186,0,0,0,0,0,0,-3.1039,-3.1037,-3.1077,-3.1076,-3.1024,-3.1017,-3.1014,-3.1028,-3.1009,-3.1002,-3.0991,-3.0984,-3.0983,-3.0985,-3.0987,-3.1088,-3.0975,-3.0978,-3.0979,-3.1179,-3.1183,-3.1187,0,0,0,0,0,0,-3.1039,-3.1044,-3.1077,-3.1055,-3.1057,-3.1021,-3.1037,-3.1029,-3.1036,-3.1006,-3.0998,-3.1005,-3.098,-3.0983,-3.1035,-3.1086,-3.0979,-3.0982,-3.1174,-3.118,-3.1185,-3.1291,0,0,0,0,0,0,-3.1037,-3.1044,-3.1076,-3.1056,-3.1059,-3.1125,-3.1041,-3.1032,-3.1041,-3.1031,-3.1017,-3.1011,-3.0978,-3.1032,-3.1038,-3.1088,-3.0984,-3.1169,-3.1177,-3.1183,-3.1282,-3.1299,-3.1313,0,0,0,0,0,-3.1036,-3.1106,-3.1078,-3.1083,-3.1098,-3.1128,-3.113,-3.109,-3.1045,-3.1077,-3.1058,-3.1011,-3.108,-3.1038,-3.1044,-3.1096,-3.1166,-3.1175,-3.1183,-3.1275,-3.1296,-3.1313,0,0,0,0,0,0,-3.1132,-3.1102,-3.1071,-3.1137,-3.1136,-3.1112,-3.1151,-3.1113,-3.1125,-3.1115,-3.1066,-3.1064,-3.1124,-3.1115,-3.1069,-3.118,-3.1115,-3.1125,-3.1183,-3.1202,-3.1218,-3.1218,-3.0986,0,0,0,0,0,-3.1161,-3.1188,-3.1161,-3.1221,-3.1223,-3.1188,-3.1199,-3.1169,-3.1166,-3.1165,-3.115,-3.115,-3.1171,-3.1186,-3.1204,-3.1281,-3.1277,-3.132,-3.1336,-3.1349,-3.1358,-3.1399,-3.1418,-3.1215,-3.1215,-3.1215,0,0,-3.1221,-3.1208,-3.1228,-3.1241,-3.1236,-3.1266,-3.1188,-3.1222,-3.1244,-3.1171,-3.1219,-3.1208,-3.1205,-3.127,-3.1298,-3.1265,-3.1414,-3.1359,-3.137,-3.1372,-3.141,-3.1429,-3.1447,-3.1221,-3.122,-3.1219,0,0,-3.1346,-3.1338,-3.1389,-3.1386,-3.1381,-3.1358,-3.137,-3.1353,-3.1343,-3.1391,-3.1338,-3.1364,-3.1401,-3.1401,-3.1406,-3.1534,-3.1492,-3.1542,-3.1623,-3.1664,-3.168,-3.1694,-3.174,-3.1757,-3.1551,-3.1551,-3.1552,0,-3.1421,-3.1463,-3.142,-3.1458,-3.1466,-3.1401,-3.1453,-3.1453,-3.1454,-3.1461,-3.1424,-3.1471,-3.1464,-3.153,-3.1561,-3.1567,-3.1581,-3.1542,-3.1681,-3.1694,-3.1707,-3.175,-3.1768,-3.1557,-3.1557,-3.1556,-3.1556,0,-3.1556,-3.1587,-3.1628,-3.1631,-3.1644,-3.1688,-3.1653,-3.1671,-3.1641,-3.1622,-3.1673,-3.1662,-3.1678,-3.1691,-3.1662,-3.1753,-3.1733,-3.1689,-3.1623,-3.1733,-3.1773,-3.179,-3.1566,-3.1564,-3.1562,-3.1561,0,0,-3.1739,-3.1719,-3.1735,-3.1737,-3.1727,-3.175,-3.1793,-3.1809,-3.1826,-3.183,-3.1865,-3.19,-3.186,-3.1866,-3.1836,-3.1872,-3.1975,-3.1824,-3.1823,-3.1853,-3.2077,-3.211,-3.213,-3.1948,-3.1951,-3.1953,-3.2077,0,-3.1859,-3.193,-3.1894,-3.197,-3.1998,-3.1939,-3.1977,-3.1976,-3.196,-3.1983,-3.1965,-3.1991,-3.1936,-3.1939,-3.1973,-3.1956,-3.202,-3.1946,-3.1981,-3.1983,-3.1983,-3.2151,-3.2185,-3.2303,-3.2093,-3.2095,-3.2097,0,-3.2008,-3.2019,-3.2098,-3.2085,-3.2096,-3.213,-3.2142,-3.2164,-3.2163,-3.2149,-3.2157,-3.2119,-3.2162,-3.2097,-3.2156,-3.2107,-3.2119,-3.2113,-3.2117,-3.2118,-3.2046,-3.2157,-3.2339,-3.2357,-3.2122,-3.212,-3.2118,0,-3.2134,-3.2169,-3.2221,-3.2224,-3.221,-3.2236,-3.2231,-3.2227,-3.2239,-3.225,-3.2258,-3.2274,-3.2283,-3.2297,-3.2265,-3.2221,-3.2329,-3.2261,-3.2319,-3.2321,-3.2344,-3.2343,-3.2531,-3.2353,-3.2352,-3.2352,-3.2352,0,-3.2272,-3.2323,-3.2277,-3.2309,-3.2366,-3.2324,-3.2381,-3.237,-3.2367,-3.2397,-3.2347,-3.2377,-3.2333,-3.2359,-3.2334,-3.2387,-3.2392,-3.2382,-3.2375,-3.2387,-3.2388,-3.2394,-3.2385,-3.2357,-3.2356,-3.2355,-3.2354,0,-3.2421,-3.2393,-3.2446,-3.243,-3.2427,-3.2469,-3.2455,-3.2485,-3.2467,-3.2505,-3.2512,-3.2484,-3.2511,-3.2481,-3.2507,-3.2491,-3.2562,-3.2543,-3.2563,-3.2557,-3.2617,-3.2612,-3.2816,-3.2841,-3.2647,-3.2648,-3.265,0,-3.2511,-3.2549,-3.2537,-3.2553,-3.2552,-3.2579,-3.2591,-3.2553,-3.2568,-3.2571,-3.2601,-3.2625,-3.2641,-3.2689,-3.2671,-3.2691,-3.2672,-3.2742,-3.2674,-3.2685,-3.2673,-3.2671,-3.2676,-3.2756,-3.2758,-3.276,-3.2761,0,-3.2672,-3.2657,-3.2677,-3.2693,-3.2709,-3.272,-3.2727,-3.2744,-3.2704,-3.2724,-3.2752,-3.2765,-3.2792,-3.2816,-3.2831,-3.2828,-3.2789,-3.2783,-3.2798,-3.2809,-3.2819,-3.2815,-3.26,-3.2778,-3.2776,-3.2775,-3.2774,-3.2774,-3.2794,-3.2826,-3.2823,-3.2847,-3.2849,-3.2857,-3.2885,-3.2871,-3.2893,-3.2912,-3.2888,-3.2923,-3.2923,-3.2939,-3.2941,-3.2968,-3.2938,-3.2959,-3.2965,-3.297,-3.2979,-3.2816,-3.2971,-3.297,-3.297,-3.2969,-3.2969,0,-3.2954,-3.295,-3.2973,-3.2984,-3.3004,-3.2966,-3.2972,-3.2992,-3.3023,-3.3026,-3.3044,-3.3077,-3.3101,-3.3087,-3.3107,-3.3133,-3.3115,-3.3139,-3.3137,-3.3137,-3.3005,-3.299,-3.3153,-3.3153,-3.3153,-3.3153,-3.3153,-3.3153,-3.3039,-3.3091,-3.3076,-3.3129,-3.3124,-3.3158,-3.3165,-3.3173,-3.3175,-3.3214,-3.3234,-3.3225,-3.3221,-3.3242,-3.3263,-3.3258,-3.3268,-3.3299,-3.3288,-3.3164,-3.3146,-3.3129,-3.3115,-3.3302,-3.3302,-3.3418,-3.3419,-3.342]},{"header":{"parameterUnit":"m.s-1","parameterCategory":1,"la1":30.2991,"la2":30.254,"lo1":-89.0895,"lo2":-89.0444,"dy":0.0017,"dx":0.0017,"nx":28,"ny":28,"refTime":"2024-03-21T09:00:00:Z","depth":0,"parameterNumber":3,"parameterNumberName":"V-component_of_WINDS"},"data":[0,0,0,0,0,0,0,0,0,0,0,0,0,0,0,0,0,0,0,0,0,0,0,0,0,0,0,0,0,0,0,0,0,0,0,0,0,0,0,0,0,0,0,0,0,0,0,0,0,0,0,0,0,0,0,0,0,0,2.8747,2.8747,0,2.8724,2.8724,2.8724,2.8721,2.8721,2.8721,2.8721,2.8694,2.8693,2.8693,0,0,0,0,0,0,0,0,0,0,0,0,0,2.8785,2.8785,2.8747,2.8747,2.8747,2.8724,2.8724,2.8724,2.8721,2.8721,2.8721,2.8722,2.8695,2.8694,2.8692,0,0,0,0,0,0,0,0,0,0,0,0,0,2.8766,2.8785,2.8747,2.8742,2.8742,2.8724,2.8724,2.8724,2.8721,2.8721,2.8721,2.8722,2.8695,2.8694,2.8692,2.8677,0,0,2.8688,2.8687,0,0,0,0,0,0,0,0,2.8767,2.8765,2.8743,2.8743,2.8742,2.8726,2.8728,2.8708,2.8721,2.8729,2.8721,2.8722,2.8704,2.8702,2.8697,2.8676,2.8674,2.8688,2.8687,2.8686,2.8686,0,0,0,0,0,0,0,2.8769,2.8766,2.8738,2.8743,2.8742,2.8741,2.8738,2.8724,2.8715,2.8728,2.8728,2.8725,2.8704,2.8698,2.8696,2.8674,2.8688,2.8687,2.8686,2.8685,2.8639,2.8639,0,0,0,0,0,0,2.8771,2.8767,2.8739,2.8737,2.8756,2.874,2.8737,2.8731,2.8715,2.8713,2.8725,2.8725,2.8701,2.8698,2.8695,2.8677,2.8686,2.8685,2.8684,2.864,2.8639,2.8639,0,0,0,0,0,0,2.8772,2.8769,2.874,2.8752,2.8748,2.8739,2.8731,2.873,2.8724,2.8713,2.8711,2.8721,2.8701,2.8697,2.8682,2.8676,2.8684,2.8683,2.864,2.864,2.8639,2.8639,0,0,0,0,0,0,2.8773,2.8769,2.8764,2.8752,2.8748,2.8727,2.8731,2.8729,2.8722,2.8723,2.8709,2.8706,2.8701,2.8684,2.868,2.8674,2.8682,2.8641,2.864,2.8639,2.8639,2.8638,2.8638,0,0,0,0,0,2.8775,2.8764,2.8763,2.876,2.8741,2.8727,2.8724,2.8719,2.8722,2.8716,2.8709,2.8707,2.8677,2.8682,2.8678,2.8671,2.8641,2.864,2.8639,2.864,2.8639,2.8638,0,0,0,0,0,0,2.8773,2.8762,2.8762,2.8747,2.8738,2.8727,2.8719,2.8718,2.8707,2.8707,2.87,2.8697,2.8682,2.8675,2.8681,2.8656,2.8659,2.8657,2.8661,2.866,2.8659,2.866,2.8681,0,0,0,0,0,2.8772,2.8762,2.8752,2.874,2.8736,2.8728,2.8722,2.8719,2.8709,2.8705,2.8696,2.8686,2.8674,2.8667,2.8655,2.8639,2.8635,2.8632,2.8631,2.863,2.8629,2.862,2.8618,2.8636,2.8636,2.8636,0,0,2.8767,2.876,2.8754,2.874,2.8733,2.8722,2.8725,2.8714,2.8706,2.8703,2.8688,2.8682,2.8669,2.8654,2.8646,2.8647,2.8623,2.8629,2.8629,2.8627,2.8619,2.8617,2.8616,2.8635,2.8636,2.8636,0,0,2.8754,2.8748,2.8737,2.873,2.872,2.8716,2.8713,2.8702,2.8698,2.8684,2.8681,2.8671,2.8651,2.8643,2.8636,2.8622,2.862,2.8618,2.8613,2.8604,2.8603,2.8602,2.8597,2.8595,2.8617,2.8617,2.8617,0,2.8749,2.8735,2.8731,2.8721,2.8715,2.8713,2.8702,2.8695,2.8681,2.8677,2.8679,2.8654,2.8646,2.8629,2.8625,2.862,2.8616,2.8619,2.8604,2.8602,2.8601,2.8596,2.8594,2.8616,2.8616,2.8617,2.8617,0,2.873,2.872,2.8713,2.8701,2.8694,2.8683,2.8677,2.867,2.8668,2.8663,2.8648,2.8639,2.8626,2.8621,2.8618,2.8604,2.8605,2.8605,2.8608,2.8599,2.8595,2.8593,2.8616,2.8616,2.8616,2.8616,0,0,2.8714,2.8702,2.87,2.8695,2.8684,2.8676,2.8665,2.8654,2.8648,2.8639,2.8629,2.8613,2.8614,2.8606,2.8602,2.8595,2.8584,2.8596,2.8596,2.8595,2.8568,2.8567,2.8565,2.8583,2.8583,2.8583,2.8569,0,2.87,2.8682,2.8679,2.8663,2.8654,2.8653,2.8643,2.8635,2.863,2.8621,2.8615,2.8604,2.8606,2.8602,2.8594,2.8587,2.8579,2.8588,2.8574,2.8573,2.8577,2.8563,2.8562,2.8549,2.8567,2.8567,2.8566,0,2.8681,2.8673,2.8656,2.8648,2.8644,2.8636,2.8625,2.8617,2.8608,2.8605,2.8597,2.8595,2.8583,2.8587,2.8571,2.8577,2.8571,2.8567,2.8566,2.8564,2.8569,2.856,2.8545,2.8543,2.8563,2.8564,2.8564,0,2.8671,2.8656,2.8645,2.864,2.863,2.8624,2.862,2.8611,2.8605,2.8596,2.8592,2.8581,2.8575,2.8566,2.856,2.8564,2.8544,2.8548,2.8541,2.8541,2.8536,2.8537,2.852,2.8533,2.8533,2.8533,2.8533,0,2.8656,2.8646,2.8641,2.8633,2.8622,2.8618,2.8607,2.8602,2.8595,2.8586,2.8584,2.8576,2.8569,2.856,2.8555,2.8542,2.8539,2.8536,2.8535,2.8536,2.8537,2.8532,2.8532,2.8532,2.8533,2.8533,2.8533,0,2.8643,2.8639,2.8626,2.8618,2.8616,2.8608,2.8601,2.8593,2.8589,2.8578,2.8576,2.8568,2.8557,2.8551,2.8537,2.8534,2.852,2.8519,2.8523,2.8523,2.8516,2.8517,2.8495,2.8492,2.8507,2.8507,2.8507,0,2.8633,2.8625,2.8617,2.8612,2.8608,2.8599,2.8593,2.8589,2.8583,2.8573,2.8567,2.8556,2.8547,2.853,2.8523,2.8512,2.8511,2.8504,2.8509,2.8511,2.8511,2.8511,2.8511,2.8503,2.8503,2.8503,2.8503,0,2.8616,2.8615,2.8607,2.8599,2.8592,2.8585,2.8578,2.8574,2.8569,2.8562,2.8552,2.8545,2.8532,2.8521,2.851,2.8504,2.8502,2.8502,2.8499,2.85,2.8503,2.8502,2.8521,2.8502,2.8502,2.8502,2.8502,2.8502,2.8604,2.8598,2.8591,2.8583,2.8578,2.8572,2.8565,2.856,2.8552,2.8542,2.854,2.8529,2.852,2.8506,2.85,2.8491,2.8492,2.8488,2.8488,2.8487,2.8487,2.8505,2.8488,2.8488,2.8489,2.8489,2.8489,0,2.8587,2.8584,2.8576,2.8567,2.856,2.8561,2.8554,2.8548,2.8539,2.8532,2.8524,2.8512,2.8502,2.8495,2.8484,2.8479,2.8478,2.8476,2.8476,2.8475,2.8486,2.8489,2.8477,2.8477,2.8477,2.8477,2.8477,2.8477,2.8578,2.8567,2.8565,2.8552,2.8548,2.8538,2.8534,2.8528,2.8523,2.851,2.8503,2.8499,2.8491,2.8481,2.8472,2.847,2.8466,2.8464,2.8462,2.8473,2.8474,2.8475,2.8478,2.8463,2.8463,2.8451,2.8451,2.8451]}]]